Location: Perryvale
(54.4667°N, 113.3833°W)
Time: 21:35:22
(UTC+00:00)

SR - Pass Details

Date: 21 May 2024
Orbit: 580 x 858 km, 66.7° (Epoch: 19 June)

Event Time Altitude Azimuth Distance (km) Brightness Sun altitude
Rises 06:37:10 0° 304° (NW) 3,026 ? -14.4°
Reaches altitude 10° 06:40:12 10° 323° (NW) 2,058 ? -14.5°
Maximum altitude 06:43:25 18° 7° (N) 1,532 ? -14.6°
Drops below altitude 10° 06:46:31 10° 52° (NE) 1,964 ? -14.6°
Sets 06:49:20 0° 72° (ENE) 2,837 ? -14.7°
